Voltar ao catálogo

THORAD AGENA D DEB

AtivoPO
NORAD 4818·DEBRIS·🇺🇸 United States

Lançado Apr 8, 1970 de Vandenberg Space Force Base

Loading…

Próximas Passagens (próximas 24 horas)

TLE

AtualizadoSource: Space-Track

Época: Sep 14, 2026, 06:12 UTC

1 04818U 70025DZ  26257.25889988  .00000303  00000-0  82071-3 0  9991
2 04818  99.8867 162.4393 0271434 351.5939 159.8892 13.10407291691482

Acompanhe THORAD AGENA D DEB em tempo real com AllMySat

Download on the App Store